Time,TemperatureF,DewpointF,PressureIn,WindDirection,WindDirectionDegrees,WindSpeedMPH,WindSpeedGustMPH,Humidity,HourlyPrecipIn,Conditions,Clouds,dailyrainin,SoftwareType,DateUTC
2013-04-05 00:05:00,44.0,43.0,30.02,NW,315,0.0,3.0,97,0.00,,,0.00,Rainwise IP-100,2013-04-05 05:05:00,
2013-04-05 00:10:00,44.0,43.0,30.02,NW,315,0.0,0.0,97,0.00,,,0.00,Rainwise IP-100,2013-04-05 05:10:00,
2013-04-05 00:15:00,43.0,42.0,30.02,WSW,247,0.0,2.0,96,0.00,,,0.00,Rainwise IP-100,2013-04-05 05:15:00,
2013-04-05 00:20:00,43.0,42.0,30.02,WSW,247,0.0,2.0,96,0.00,,,0.00,Rainwise IP-100,2013-04-05 05:20:00,
2013-04-05 00:25:00,43.0,42.0,30.03,WSW,247,0.0,0.0,96,0.00,,,0.00,Rainwise IP-100,2013-04-05 05:25:00,
2013-04-05 00:30:00,43.0,42.0,30.03,WSW,247,0.0,0.0,96,0.00,,,0.00,Rainwise IP-100,2013-04-05 05:30:00,
2013-04-05 00:35:00,43.0,42.0,30.02,WSW,247,0.0,0.0,96,0.00,,,0.00,Rainwise IP-100,2013-04-05 05:35:00,
2013-04-05 00:40:00,42.0,41.0,30.02,WSW,247,0.0,0.0,96,0.00,,,0.00,Rainwise IP-100,2013-04-05 05:40:00,
2013-04-05 00:45:00,42.0,41.0,30.02,WSW,247,0.0,0.0,96,0.00,,,0.00,Rainwise IP-100,2013-04-05 05:45:00,
2013-04-05 00:50:00,42.0,41.0,30.02,WSW,247,0.0,0.0,96,0.00,,,0.00,Rainwise IP-100,2013-04-05 05:50:00,
2013-04-05 00:55:00,42.0,41.0,30.02,WSW,247,0.0,0.0,96,0.00,,,0.00,Rainwise IP-100,2013-04-05 05:55:00,
2013-04-05 01:00:00,42.0,41.0,30.02,WSW,247,0.0,0.0,96,0.00,,,0.00,Rainwise IP-100,2013-04-05 06:00:00,
2013-04-05 01:05:00,41.0,40.0,30.03,WSW,247,0.0,0.0,96,0.00,,,0.00,Rainwise IP-100,2013-04-05 06:05:00,
2013-04-05 01:10:00,41.0,40.0,30.03,WSW,247,0.0,0.0,96,0.00,,,0.00,Rainwise IP-100,2013-04-05 06:10:00,
2013-04-05 01:15:00,41.0,40.0,30.03,WSW,247,0.0,0.0,96,0.00,,,0.00,Rainwise IP-100,2013-04-05 06:15:00,
2013-04-05 01:20:00,40.0,39.0,30.03,WSW,247,0.0,0.0,96,0.00,,,0.00,Rainwise IP-100,2013-04-05 06:20:00,
2013-04-05 01:25:00,40.0,39.0,30.03,WSW,247,0.0,1.0,96,0.00,,,0.00,Rainwise IP-100,2013-04-05 06:25:00,
2013-04-05 01:30:00,40.0,39.0,30.03,WSW,247,0.0,0.0,96,0.00,,,0.00,Rainwise IP-100,2013-04-05 06:30:00,
2013-04-05 01:35:00,41.0,40.0,30.03,WSW,247,0.0,0.0,96,0.00,,,0.00,Rainwise IP-100,2013-04-05 06:35:00,
2013-04-05 01:40:00,41.0,40.0,30.03,WSW,247,0.0,0.0,96,0.00,,,0.00,Rainwise IP-100,2013-04-05 06:40:00,
2013-04-05 01:45:00,40.0,39.0,30.04,WSW,247,0.0,0.0,96,0.00,,,0.00,Rainwise IP-100,2013-04-05 06:45:00,
2013-04-05 01:50:00,40.0,39.0,30.04,WSW,247,0.0,0.0,96,0.00,,,0.00,Rainwise IP-100,2013-04-05 06:50:00,
2013-04-05 01:55:00,40.0,39.0,30.04,WSW,247,0.0,0.0,96,0.00,,,0.00,Rainwise IP-100,2013-04-05 06:55:00,
2013-04-05 02:00:00,40.0,39.0,30.04,WSW,247,0.0,0.0,96,0.00,,,0.00,Rainwise IP-100,2013-04-05 07:00:00,
2013-04-05 02:05:00,40.0,39.0,30.04,WSW,247,0.0,0.0,96,0.00,,,0.00,Rainwise IP-100,2013-04-05 07:05:00,
2013-04-05 02:10:00,41.0,40.0,30.04,WSW,247,0.0,3.0,96,0.00,,,0.00,Rainwise IP-100,2013-04-05 07:10:00,
2013-04-05 02:15:00,40.0,39.0,30.04,WSW,247,0.0,1.0,96,0.00,,,0.00,Rainwise IP-100,2013-04-05 07:15:00,
2013-04-05 02:20:00,40.0,39.0,30.04,WSW,247,0.0,0.0,96,0.00,,,0.00,Rainwise IP-100,2013-04-05 07:20:00,
2013-04-05 02:25:00,40.0,39.0,30.04,WSW,247,0.0,3.0,96,0.00,,,0.00,Rainwise IP-100,2013-04-05 07:25:00,
2013-04-05 02:30:00,40.0,39.0,30.04,WSW,247,0.0,0.0,96,0.00,,,0.00,Rainwise IP-100,2013-04-05 07:30:00,
2013-04-05 02:35:00,40.0,39.0,30.04,WSW,247,0.0,0.0,96,0.00,,,0.00,Rainwise IP-100,2013-04-05 07:35:00,
2013-04-05 02:40:00,40.0,39.0,30.04,NE,45,2.0,3.0,96,0.00,,,0.00,Rainwise IP-100,2013-04-05 07:40:00,
2013-04-05 02:45:00,39.0,38.0,30.03,NE,45,0.0,3.0,96,0.00,,,0.00,Rainwise IP-100,2013-04-05 07:45:00,
2013-04-05 02:50:00,39.0,38.0,30.03,NE,45,0.0,0.0,96,0.00,,,0.00,Rainwise IP-100,2013-04-05 07:50:00,
2013-04-05 02:55:00,39.0,38.0,30.04,NE,45,4.0,4.0,96,0.00,,,0.00,Rainwise IP-100,2013-04-05 07:55:00,
2013-04-05 03:00:00,39.0,38.0,30.04,ENE,67,2.0,4.0,96,0.00,,,0.00,Rainwise IP-100,2013-04-05 08:00:00,
2013-04-05 03:05:00,39.0,38.0,30.05,ENE,67,2.0,3.0,96,0.00,,,0.00,Rainwise IP-100,2013-04-05 08:05:00,
2013-04-05 03:10:00,39.0,38.0,30.05,ENE,67,2.0,3.0,96,0.00,,,0.00,Rainwise IP-100,2013-04-05 08:10:00,
2013-04-05 03:15:00,39.0,38.0,30.05,ENE,67,1.0,2.0,96,0.00,,,0.00,Rainwise IP-100,2013-04-05 08:15:00,
2013-04-05 03:20:00,39.0,38.0,30.05,ENE,67,2.0,2.0,96,0.00,,,0.00,Rainwise IP-100,2013-04-05 08:20:00,
2013-04-05 03:25:00,38.0,37.0,30.05,ENE,67,0.0,2.0,96,0.00,,,0.00,Rainwise IP-100,2013-04-05 08:25:00,
2013-04-05 03:30:00,38.0,37.0,30.05,ENE,67,0.0,0.0,96,0.00,,,0.00,Rainwise IP-100,2013-04-05 08:30:00,
2013-04-05 03:35:00,38.0,37.0,30.05,ENE,67,0.0,0.0,96,0.00,,,0.00,Rainwise IP-100,2013-04-05 08:35:00,
2013-04-05 03:40:00,38.0,37.0,30.05,ENE,67,0.0,0.0,96,0.00,,,0.00,Rainwise IP-100,2013-04-05 08:40:00,
2013-04-05 03:45:00,38.0,37.0,30.05,ENE,67,0.0,0.0,96,0.00,,,0.00,Rainwise IP-100,2013-04-05 08:45:00,
2013-04-05 03:50:00,38.0,37.0,30.05,ENE,67,0.0,0.0,96,0.00,,,0.00,Rainwise IP-100,2013-04-05 08:50:00,
2013-04-05 03:55:00,38.0,37.0,30.05,ENE,67,0.0,0.0,96,0.00,,,0.00,Rainwise IP-100,2013-04-05 08:55:00,
2013-04-05 04:00:00,37.0,36.0,30.05,ENE,67,0.0,0.0,96,0.00,,,0.00,Rainwise IP-100,2013-04-05 09:00:00,
2013-04-05 04:05:00,37.0,36.0,30.06,ENE,67,0.0,0.0,96,0.00,,,0.00,Rainwise IP-100,2013-04-05 09:05:00,
2013-04-05 04:10:00,37.0,36.0,30.06,ENE,67,0.0,0.0,96,0.00,,,0.00,Rainwise IP-100,2013-04-05 09:10:00,
2013-04-05 04:15:00,37.0,36.0,30.07,ENE,67,0.0,0.0,96,0.00,,,0.00,Rainwise IP-100,2013-04-05 09:15:00,
2013-04-05 04:20:00,37.0,36.0,30.07,ENE,67,0.0,0.0,96,0.00,,,0.00,Rainwise IP-100,2013-04-05 09:20:00,
2013-04-05 04:25:00,37.0,36.0,30.07,ENE,67,0.0,0.0,96,0.00,,,0.00,Rainwise IP-100,2013-04-05 09:25:00,
2013-04-05 04:30:00,37.0,36.0,30.07,ENE,67,0.0,0.0,96,0.00,,,0.00,Rainwise IP-100,2013-04-05 09:30:00,
2013-04-05 04:36:00,37.0,36.0,30.08,ENE,67,0.0,0.0,96,0.00,,,0.00,Rainwise IP-100,2013-04-05 09:36:00,
2013-04-05 04:41:00,37.0,36.0,30.08,ENE,67,0.0,0.0,96,0.00,,,0.00,Rainwise IP-100,2013-04-05 09:41:00,
2013-04-05 04:46:00,36.0,35.0,30.08,ENE,67,0.0,0.0,95,0.00,,,0.00,Rainwise IP-100,2013-04-05 09:46:00,
2013-04-05 04:51:00,36.0,35.0,30.08,ENE,67,0.0,0.0,95,0.00,,,0.00,Rainwise IP-100,2013-04-05 09:51:00,
2013-04-05 04:56:00,36.0,35.0,30.08,ENE,67,0.0,0.0,95,0.00,,,0.00,Rainwise IP-100,2013-04-05 09:56:00,
2013-04-05 05:01:00,37.0,36.0,30.08,ENE,67,1.0,0.0,96,0.00,,,0.00,Rainwise IP-100,2013-04-05 10:01:00,
2013-04-05 05:06:00,37.0,36.0,30.08,ENE,67,0.0,2.0,96,0.00,,,0.00,Rainwise IP-100,2013-04-05 10:06:00,
2013-04-05 05:11:00,36.0,35.0,30.08,ENE,67,0.0,1.0,95,0.00,,,0.00,Rainwise IP-100,2013-04-05 10:11:00,
2013-04-05 05:16:00,36.0,35.0,30.08,ENE,67,0.0,0.0,95,0.00,,,0.00,Rainwise IP-100,2013-04-05 10:16:00,
2013-04-05 05:21:00,36.0,35.0,30.08,ENE,67,0.0,0.0,95,0.06,,,0.01,Rainwise IP-100,2013-04-05 10:21:00,
2013-04-05 05:26:00,36.0,35.0,30.09,ENE,67,0.0,0.0,95,0.06,,,0.01,Rainwise IP-100,2013-04-05 10:26:00,
2013-04-05 05:31:00,35.0,33.0,30.09,ENE,67,0.0,0.0,95,0.00,,,0.01,Rainwise IP-100,2013-04-05 10:31:00,
2013-04-05 05:36:00,35.0,33.0,30.09,ENE,67,0.0,0.0,95,0.00,,,0.01,Rainwise IP-100,2013-04-05 10:36:00,
2013-04-05 05:41:00,35.0,33.0,30.09,ENE,67,0.0,0.0,95,0.00,,,0.01,Rainwise IP-100,2013-04-05 10:41:00,
2013-04-05 05:46:00,35.0,33.0,30.09,ENE,67,0.0,0.0,95,0.00,,,0.01,Rainwise IP-100,2013-04-05 10:46:00,
2013-04-05 05:51:00,35.0,33.0,30.09,ENE,67,0.0,0.0,95,0.00,,,0.01,Rainwise IP-100,2013-04-05 10:51:00,
2013-04-05 05:56:00,35.0,33.0,30.09,ENE,67,0.0,0.0,95,0.00,,,0.01,Rainwise IP-100,2013-04-05 10:56:00,
2013-04-05 06:01:00,35.0,33.0,30.09,ENE,67,0.0,0.0,95,0.00,,,0.01,Rainwise IP-100,2013-04-05 11:01:00,
2013-04-05 06:06:00,34.0,33.0,30.10,ENE,67,0.0,0.0,95,0.00,,,0.01,Rainwise IP-100,2013-04-05 11:06:00,
2013-04-05 06:11:00,35.0,33.0,30.10,ENE,67,0.0,0.0,95,0.00,,,0.01,Rainwise IP-100,2013-04-05 11:11:00,
2013-04-05 06:16:00,35.0,33.0,30.10,ENE,67,0.0,0.0,95,0.00,,,0.01,Rainwise IP-100,2013-04-05 11:16:00,
2013-04-05 06:21:00,34.0,33.0,30.10,ENE,67,0.0,0.0,95,0.00,,,0.01,Rainwise IP-100,2013-04-05 11:21:00,
2013-04-05 06:26:00,34.0,33.0,30.10,ENE,67,0.0,0.0,95,0.00,,,0.01,Rainwise IP-100,2013-04-05 11:26:00,
2013-04-05 06:31:00,34.0,33.0,30.10,ENE,67,0.0,0.0,95,0.00,,,0.01,Rainwise IP-100,2013-04-05 11:31:00,
2013-04-05 06:36:00,34.0,33.0,30.12,ENE,67,0.0,0.0,95,0.00,,,0.01,Rainwise IP-100,2013-04-05 11:36:00,
2013-04-05 06:41:00,34.0,33.0,30.12,ENE,67,0.0,0.0,95,0.00,,,0.01,Rainwise IP-100,2013-04-05 11:41:00,
2013-04-05 06:46:00,34.0,33.0,30.12,SSW,202,0.0,0.0,95,0.00,,,0.01,Rainwise IP-100,2013-04-05 11:46:00,
2013-04-05 06:51:00,35.0,33.0,30.12,SW,225,0.0,0.0,95,0.00,,,0.01,Rainwise IP-100,2013-04-05 11:51:00,
2013-04-05 06:56:00,35.0,33.0,30.11,SW,225,0.0,0.0,95,0.00,,,0.01,Rainwise IP-100,2013-04-05 11:56:00,
2013-04-05 07:01:00,34.0,33.0,30.11,SW,225,0.0,0.0,95,0.00,,,0.01,Rainwise IP-100,2013-04-05 12:01:00,
2013-04-05 07:06:00,35.0,33.0,30.12,SW,225,0.0,0.0,95,0.00,,,0.01,Rainwise IP-100,2013-04-05 12:06:00,
2013-04-05 07:11:00,35.0,33.0,30.12,SW,225,0.0,0.0,95,0.00,,,0.01,Rainwise IP-100,2013-04-05 12:11:00,
2013-04-05 07:16:00,35.0,33.0,30.12,SW,225,0.0,0.0,95,0.00,,,0.01,Rainwise IP-100,2013-04-05 12:16:00,
2013-04-05 07:22:00,35.0,33.0,30.12,SW,225,0.0,0.0,95,0.00,,,0.01,Rainwise IP-100,2013-04-05 12:22:00,
2013-04-05 07:27:00,36.0,35.0,30.13,SW,225,0.0,0.0,95,0.00,,,0.01,Rainwise IP-100,2013-04-05 12:27:00,
2013-04-05 07:32:00,36.0,35.0,30.13,SW,225,0.0,0.0,95,0.00,,,0.01,Rainwise IP-100,2013-04-05 12:32:00,
2013-04-05 07:37:00,36.0,35.0,30.13,SW,225,0.0,0.0,95,0.00,,,0.01,Rainwise IP-100,2013-04-05 12:37:00,
2013-04-05 07:42:00,37.0,36.0,30.13,SW,225,0.0,0.0,96,0.00,,,0.01,Rainwise IP-100,2013-04-05 12:42:00,
2013-04-05 07:47:00,37.0,36.0,30.13,SW,225,0.0,0.0,96,0.00,,,0.01,Rainwise IP-100,2013-04-05 12:47:00,
2013-04-05 07:52:00,38.0,37.0,30.13,SW,225,0.0,0.0,96,0.00,,,0.01,Rainwise IP-100,2013-04-05 12:52:00,
2013-04-05 07:57:00,38.0,37.0,30.13,SW,225,0.0,0.0,96,0.00,,,0.01,Rainwise IP-100,2013-04-05 12:57:00,
2013-04-05 08:02:00,39.0,38.0,30.13,SW,225,0.0,0.0,96,0.00,,,0.01,Rainwise IP-100,2013-04-05 13:02:00,
2013-04-05 08:07:00,40.0,39.0,30.13,SW,225,0.0,0.0,96,0.00,,,0.01,Rainwise IP-100,2013-04-05 13:07:00,
2013-04-05 08:12:00,41.0,40.0,30.13,SW,225,0.0,0.0,96,0.00,,,0.01,Rainwise IP-100,2013-04-05 13:12:00,
2013-04-05 08:17:00,41.0,40.0,30.13,SW,225,0.0,2.0,96,0.00,,,0.01,Rainwise IP-100,2013-04-05 13:17:00,
2013-04-05 08:22:00,42.0,41.0,30.13,SE,135,0.0,2.0,96,0.00,,,0.01,Rainwise IP-100,2013-04-05 13:22:00,
2013-04-05 08:27:00,43.0,42.0,30.12,SE,135,0.0,0.0,96,0.00,,,0.01,Rainwise IP-100,2013-04-05 13:27:00,
2013-04-05 08:32:00,43.0,42.0,30.12,East,90,3.0,4.0,96,0.00,,,0.01,Rainwise IP-100,2013-04-05 13:32:00,
2013-04-05 08:37:00,43.0,42.0,30.13,SE,135,2.0,3.0,96,0.00,,,0.01,Rainwise IP-100,2013-04-05 13:37:00,
2013-04-05 08:42:00,43.0,42.0,30.13,SSE,157,3.0,4.0,96,0.00,,,0.01,Rainwise IP-100,2013-04-05 13:42:00,
2013-04-05 08:47:00,45.0,44.0,30.14,SSE,157,1.0,3.0,97,0.00,,,0.01,Rainwise IP-100,2013-04-05 13:47:00,
2013-04-05 08:52:00,46.0,45.0,30.14,SE,135,1.0,2.0,97,0.00,,,0.01,Rainwise IP-100,2013-04-05 13:52:00,
2013-04-05 08:57:00,48.0,47.5,30.12,SSE,157,1.0,2.0,97,0.00,,,0.01,Rainwise IP-100,2013-04-05 13:57:00,
2013-04-05 09:02:00,47.0,46.0,30.12,East,90,2.0,4.0,97,0.00,,,0.01,Rainwise IP-100,2013-04-05 14:02:00,
2013-04-05 09:07:00,46.0,45.0,30.14,East,90,1.0,6.0,97,0.00,,,0.01,Rainwise IP-100,2013-04-05 14:07:00,
2013-04-05 09:12:00,47.0,46.0,30.14,ENE,67,1.0,5.0,97,0.00,,,0.01,Rainwise IP-100,2013-04-05 14:12:00,
2013-04-05 09:17:00,47.0,46.0,30.13,East,90,4.0,6.0,97,0.00,,,0.01,Rainwise IP-100,2013-04-05 14:17:00,
2013-04-05 09:22:00,48.0,47.5,30.13,East,90,3.0,5.0,97,0.00,,,0.01,Rainwise IP-100,2013-04-05 14:22:00,
2013-04-05 09:27:00,48.0,47.5,30.13,East,90,3.0,5.0,97,0.00,,,0.01,Rainwise IP-100,2013-04-05 14:27:00,
2013-04-05 09:32:00,48.0,47.5,30.13,East,90,4.0,6.0,97,0.00,,,0.01,Rainwise IP-100,2013-04-05 14:32:00,
2013-04-05 09:37:00,49.0,48.0,30.14,East,90,4.0,6.0,97,0.00,,,0.01,Rainwise IP-100,2013-04-05 14:37:00,
2013-04-05 09:42:00,51.0,50.5,30.14,East,90,2.0,6.0,97,0.00,,,0.01,Rainwise IP-100,2013-04-05 14:42:00,
2013-04-05 09:47:00,51.0,45.0,30.13,ESE,112,3.0,6.0,79,0.00,,,0.01,Rainwise IP-100,2013-04-05 14:47:00,
2013-04-05 09:52:00,53.0,50.0,30.13,NE,45,0.0,4.0,91,0.00,,,0.01,Rainwise IP-100,2013-04-05 14:52:00,
2013-04-05 09:57:00,55.0,51.0,30.12,ESE,112,0.0,4.0,87,0.00,,,0.01,Rainwise IP-100,2013-04-05 14:57:00,
2013-04-05 10:02:00,56.0,47.0,30.12,East,90,6.0,6.0,71,0.00,,,0.01,Rainwise IP-100,2013-04-05 15:02:00,
2013-04-05 10:07:00,57.0,49.0,30.11,East,90,2.0,6.0,74,0.00,,,0.01,Rainwise IP-100,2013-04-05 15:07:00,
2013-04-05 10:12:00,58.0,43.0,30.11,NE,45,5.0,5.0,57,0.00,,,0.01,Rainwise IP-100,2013-04-05 15:12:00,
2013-04-05 10:17:00,58.0,40.0,30.11,NNE,22,2.0,6.0,50,0.00,,,0.01,Rainwise IP-100,2013-04-05 15:17:00,
2013-04-05 10:22:00,60.0,42.0,30.11,NE,45,0.0,6.0,51,0.00,,,0.01,Rainwise IP-100,2013-04-05 15:22:00,
2013-04-05 10:27:00,61.0,40.0,30.10,ENE,67,1.0,6.0,47,0.00,,,0.01,Rainwise IP-100,2013-04-05 15:27:00,
2013-04-05 10:32:00,61.0,32.0,30.10,ENE,67,2.0,6.0,34,0.00,,,0.01,Rainwise IP-100,2013-04-05 15:32:00,
2013-04-05 10:37:00,61.0,36.0,30.10,North,360,1.0,7.0,38,0.00,,,0.01,Rainwise IP-100,2013-04-05 15:37:00,
2013-04-05 10:42:00,61.0,32.0,30.10,WNW,292,3.0,6.0,33,0.00,,,0.01,Rainwise IP-100,2013-04-05 15:42:00,
2013-04-05 10:47:00,62.0,32.0,30.10,WSW,247,1.0,6.0,33,0.00,,,0.01,Rainwise IP-100,2013-04-05 15:47:00,
2013-04-05 10:52:00,63.0,33.0,30.10,NE,45,2.0,6.0,32,0.00,,,0.01,Rainwise IP-100,2013-04-05 15:52:00,
2013-04-05 10:57:00,63.0,35.0,30.09,NE,45,6.0,7.0,35,0.00,,,0.01,Rainwise IP-100,2013-04-05 15:57:00,
2013-04-05 11:02:00,61.0,35.0,30.09,East,90,3.0,7.0,37,0.00,,,0.01,Rainwise IP-100,2013-04-05 16:02:00,
2013-04-05 11:07:00,62.0,36.0,30.10,NE,45,6.0,7.0,37,0.00,,,0.01,Rainwise IP-100,2013-04-05 16:07:00,
2013-04-05 11:12:00,62.0,33.0,30.10,NNW,337,0.0,7.0,34,0.00,,,0.01,Rainwise IP-100,2013-04-05 16:12:00,
2013-04-05 11:17:00,62.0,32.0,30.09,East,90,1.0,7.0,32,0.00,,,0.01,Rainwise IP-100,2013-04-05 16:17:00,
2013-04-05 11:22:00,64.0,35.0,30.09,West,270,6.0,6.0,34,0.00,,,0.01,Rainwise IP-100,2013-04-05 16:22:00,
2013-04-05 11:27:00,64.0,31.0,30.09,WSW,247,0.0,6.0,29,0.00,,,0.01,Rainwise IP-100,2013-04-05 16:27:00,
2013-04-05 11:32:00,64.0,32.0,30.09,ESE,112,4.0,6.0,30,0.00,,,0.01,Rainwise IP-100,2013-04-05 16:32:00,
2013-04-05 11:38:00,63.0,32.0,30.09,West,270,2.0,9.0,31,0.00,,,0.01,Rainwise IP-100,2013-04-05 16:38:00,
2013-04-05 11:43:00,63.0,33.0,30.09,ENE,67,5.0,10.0,32,0.00,,,0.01,Rainwise IP-100,2013-04-05 16:43:00,
2013-04-05 11:48:00,64.0,32.0,30.09,NW,315,3.0,9.0,30,0.00,,,0.01,Rainwise IP-100,2013-04-05 16:48:00,
2013-04-05 11:53:00,65.0,33.0,30.09,South,180,2.0,7.0,30,0.00,,,0.01,Rainwise IP-100,2013-04-05 16:53:00,
2013-04-05 11:58:00,65.0,33.0,30.08,NNW,337,1.0,6.0,30,0.00,,,0.01,Rainwise IP-100,2013-04-05 16:58:00,
2013-04-05 12:03:00,66.0,33.0,30.08,NE,45,6.0,8.0,29,0.00,,,0.01,Rainwise IP-100,2013-04-05 17:03:00,
2013-04-05 12:08:00,66.0,35.0,30.08,NE,45,5.0,8.0,31,0.00,,,0.01,Rainwise IP-100,2013-04-05 17:08:00,
2013-04-05 12:13:00,66.0,31.0,30.08,South,180,5.0,7.0,27,0.00,,,0.01,Rainwise IP-100,2013-04-05 17:13:00,
2013-04-05 12:18:00,65.0,32.0,30.07,North,360,8.0,9.0,29,0.00,,,0.01,Rainwise IP-100,2013-04-05 17:18:00,
2013-04-05 12:23:00,66.0,33.0,30.07,North,360,6.0,9.0,29,0.00,,,0.01,Rainwise IP-100,2013-04-05 17:23:00,
2013-04-05 12:28:00,64.0,31.0,30.07,NNE,22,7.0,11.0,29,0.00,,,0.01,Rainwise IP-100,2013-04-05 17:28:00,
2013-04-05 12:33:00,65.0,31.0,30.07,West,270,3.0,9.0,28,0.00,,,0.01,Rainwise IP-100,2013-04-05 17:33:00,
2013-04-05 12:38:00,65.0,32.0,30.07,NE,45,7.0,7.0,29,0.00,,,0.01,Rainwise IP-100,2013-04-05 17:38:00,
2013-04-05 12:43:00,67.0,33.0,30.07,North,360,6.0,12.0,29,0.00,,,0.01,Rainwise IP-100,2013-04-05 17:43:00,
2013-04-05 12:48:00,65.0,31.0,30.05,WSW,247,5.0,9.0,27,0.00,,,0.01,Rainwise IP-100,2013-04-05 17:48:00,
2013-04-05 12:53:00,66.0,31.0,30.05,North,360,6.0,8.0,27,0.00,,,0.01,Rainwise IP-100,2013-04-05 17:53:00,
2013-04-05 12:58:00,67.0,35.0,30.05,NE,45,6.0,8.0,30,0.00,,,0.01,Rainwise IP-100,2013-04-05 17:58:00,
2013-04-05 13:03:00,67.0,33.0,30.05,NE,45,5.0,8.0,29,0.00,,,0.01,Rainwise IP-100,2013-04-05 18:03:00,
2013-04-05 13:08:00,67.0,36.0,30.04,NE,45,1.0,13.0,31,0.00,,,0.01,Rainwise IP-100,2013-04-05 18:08:00,
2013-04-05 13:13:00,66.0,33.0,30.04,NE,45,7.0,9.0,29,0.00,,,0.01,Rainwise IP-100,2013-04-05 18:13:00,
2013-04-05 13:18:00,68.0,33.0,30.05,NE,45,3.0,9.0,28,0.00,,,0.01,Rainwise IP-100,2013-04-05 18:18:00,
2013-04-05 13:23:00,69.0,33.0,30.05,North,360,1.0,9.0,27,0.00,,,0.01,Rainwise IP-100,2013-04-05 18:23:00,
2013-04-05 13:28:00,68.0,33.0,30.03,NW,315,2.0,9.0,28,0.00,,,0.01,Rainwise IP-100,2013-04-05 18:28:00,
2013-04-05 13:33:00,66.0,31.0,30.03,SE,135,3.0,12.0,26,0.00,,,0.01,Rainwise IP-100,2013-04-05 18:33:00,
2013-04-05 13:38:00,68.0,32.0,30.05,WNW,292,3.0,7.0,26,0.00,,,0.01,Rainwise IP-100,2013-04-05 18:38:00,
2013-04-05 13:43:00,68.0,33.0,30.05,NE,45,5.0,10.0,27,0.00,,,0.01,Rainwise IP-100,2013-04-05 18:43:00,
2013-04-05 13:48:00,68.0,32.0,30.04,NE,45,5.0,13.0,26,0.00,,,0.01,Rainwise IP-100,2013-04-05 18:48:00,
2013-04-05 13:53:00,67.0,32.0,30.04,NW,315,4.0,9.0,27,0.00,,,0.01,Rainwise IP-100,2013-04-05 18:53:00,
2013-04-05 13:58:00,68.0,36.0,30.04,NNE,22,6.0,10.0,30,0.00,,,0.01,Rainwise IP-100,2013-04-05 18:58:00,
2013-04-05 14:03:00,68.0,32.0,30.04,North,360,7.0,10.0,26,0.00,,,0.01,Rainwise IP-100,2013-04-05 19:03:00,
2013-04-05 14:08:00,68.0,32.0,30.03,NW,315,5.0,10.0,26,0.00,,,0.01,Rainwise IP-100,2013-04-05 19:08:00,
2013-04-05 14:13:00,68.0,33.0,30.03,North,360,7.0,10.0,27,0.00,,,0.01,Rainwise IP-100,2013-04-05 19:13:00,
2013-04-05 14:18:00,69.0,32.0,30.03,NNW,337,7.0,9.0,26,0.00,,,0.01,Rainwise IP-100,2013-04-05 19:18:00,
2013-04-05 14:23:00,69.0,33.0,30.03,NW,315,7.0,9.0,27,0.00,,,0.01,Rainwise IP-100,2013-04-05 19:23:00,
2013-04-05 14:28:00,69.0,32.0,30.02,NNW,337,9.0,9.0,25,0.00,,,0.01,Rainwise IP-100,2013-04-05 19:28:00,
2013-04-05 14:33:00,68.0,33.0,30.02,NNE,22,7.0,12.0,27,0.00,,,0.01,Rainwise IP-100,2013-04-05 19:33:00,
2013-04-05 14:38:00,69.0,35.0,30.02,NE,45,6.0,9.0,28,0.00,,,0.01,Rainwise IP-100,2013-04-05 19:38:00,
2013-04-05 14:43:00,68.0,35.0,30.02,NE,45,7.0,11.0,29,0.00,,,0.01,Rainwise IP-100,2013-04-05 19:43:00,
2013-04-05 14:48:00,68.0,33.0,30.03,NE,45,9.0,11.0,27,0.00,,,0.01,Rainwise IP-100,2013-04-05 19:48:00,
2013-04-05 14:53:00,69.0,32.0,30.03,NE,45,1.0,10.0,26,0.00,,,0.01,Rainwise IP-100,2013-04-05 19:53:00,
2013-04-05 14:58:00,71.0,33.0,30.01,SW,225,3.0,6.0,25,0.00,,,0.01,Rainwise IP-100,2013-04-05 19:58:00,
2013-04-05 15:03:00,71.0,33.0,30.01,SW,225,1.0,8.0,25,0.00,,,0.01,Rainwise IP-100,2013-04-05 20:03:00,
2013-04-05 15:08:00,70.0,33.0,30.00,East,90,0.0,11.0,25,0.00,,,0.01,Rainwise IP-100,2013-04-05 20:08:00,
2013-04-05 15:13:00,70.0,33.0,30.00,SW,225,7.0,9.0,25,0.00,,,0.01,Rainwise IP-100,2013-04-05 20:13:00,
2013-04-05 15:18:00,70.0,32.0,30.00,NE,45,2.0,9.0,24,0.00,,,0.01,Rainwise IP-100,2013-04-05 20:18:00,
2013-04-05 15:23:00,70.0,33.0,30.00,WNW,292,2.0,11.0,25,0.00,,,0.01,Rainwise IP-100,2013-04-05 20:23:00,
2013-04-05 15:28:00,70.0,32.0,30.01,South,180,7.0,9.0,24,0.00,,,0.01,Rainwise IP-100,2013-04-05 20:28:00,
2013-04-05 15:33:00,70.0,33.0,30.01,ESE,112,4.0,9.0,25,0.00,,,0.01,Rainwise IP-100,2013-04-05 20:33:00,
2013-04-05 15:38:00,70.0,33.0,30.00,ENE,67,4.0,9.0,25,0.00,,,0.01,Rainwise IP-100,2013-04-05 20:38:00,
2013-04-05 15:43:00,72.0,35.0,30.00,NE,45,1.0,6.0,25,0.00,,,0.01,Rainwise IP-100,2013-04-05 20:43:00,
2013-04-05 15:48:00,71.0,32.0,29.99,North,360,6.0,8.0,24,0.00,,,0.01,Rainwise IP-100,2013-04-05 20:48:00,
2013-04-05 15:53:00,71.0,32.0,29.99,North,360,6.0,9.0,24,0.00,,,0.01,Rainwise IP-100,2013-04-05 20:53:00,
2013-04-05 15:58:00,68.0,35.0,29.99,NNE,22,8.0,11.0,29,0.00,,,0.01,Rainwise IP-100,2013-04-05 20:58:00,
2013-04-05 16:03:00,70.0,35.0,29.99,NNW,337,1.0,10.0,27,0.00,,,0.01,Rainwise IP-100,2013-04-05 21:03:00,
2013-04-05 16:08:00,71.0,33.0,29.99,SW,225,4.0,8.0,25,0.00,,,0.01,Rainwise IP-100,2013-04-05 21:08:00,
2013-04-05 16:13:00,68.0,32.0,29.99,SW,225,7.0,10.0,26,0.00,,,0.01,Rainwise IP-100,2013-04-05 21:13:00,
2013-04-05 16:18:00,69.0,32.0,30.00,WSW,247,3.0,9.0,26,0.00,,,0.01,Rainwise IP-100,2013-04-05 21:18:00,
2013-04-05 16:23:00,68.0,33.0,30.00,SSW,202,2.0,14.0,27,0.00,,,0.01,Rainwise IP-100,2013-04-05 21:23:00,
2013-04-05 16:28:00,70.0,33.0,29.99,SW,225,4.0,9.0,26,0.00,,,0.01,Rainwise IP-100,2013-04-05 21:28:00,
2013-04-05 16:33:00,69.0,32.0,29.99,SSW,202,7.0,11.0,26,0.00,,,0.01,Rainwise IP-100,2013-04-05 21:33:00,
2013-04-05 16:38:00,69.0,33.0,29.99,South,180,0.0,10.0,27,0.00,,,0.01,Rainwise IP-100,2013-04-05 21:38:00,
2013-04-05 16:43:00,70.0,33.0,29.99,SW,225,5.0,6.0,26,0.00,,,0.01,Rainwise IP-100,2013-04-05 21:43:00,
2013-04-05 16:48:00,69.0,33.0,29.99,SW,225,2.0,10.0,27,0.00,,,0.01,Rainwise IP-100,2013-04-05 21:48:00,
2013-04-05 16:53:00,69.0,32.0,29.99,SW,225,3.0,9.0,26,0.00,,,0.01,Rainwise IP-100,2013-04-05 21:53:00,
2013-04-05 16:58:00,70.0,33.0,30.00,SW,225,2.0,7.0,26,0.00,,,0.01,Rainwise IP-100,2013-04-05 21:58:00,
2013-04-05 17:03:00,70.0,33.0,30.00,WSW,247,2.0,6.0,26,0.00,,,0.01,Rainwise IP-100,2013-04-05 22:03:00,
2013-04-05 17:08:00,70.0,33.0,29.99,WSW,247,6.0,7.0,25,0.00,,,0.01,Rainwise IP-100,2013-04-05 22:08:00,
2013-04-05 17:13:00,69.0,32.0,29.99,NW,315,5.0,10.0,26,0.00,,,0.01,Rainwise IP-100,2013-04-05 22:13:00,
2013-04-05 17:18:00,69.0,32.0,30.00,NW,315,4.0,9.0,26,0.00,,,0.01,Rainwise IP-100,2013-04-05 22:18:00,
2013-04-05 17:23:00,69.0,35.0,30.00,ENE,67,2.0,7.0,28,0.00,,,0.01,Rainwise IP-100,2013-04-05 22:23:00,
2013-04-05 17:28:00,69.0,36.0,29.99,NNE,22,4.0,6.0,30,0.00,,,0.01,Rainwise IP-100,2013-04-05 22:28:00,
2013-04-05 17:33:00,68.0,35.0,29.99,North,360,6.0,6.0,29,0.00,,,0.01,Rainwise IP-100,2013-04-05 22:33:00,
2013-04-05 17:41:00,69.0,36.0,29.99,North,360,3.0,7.0,30,0.00,,,0.01,Rainwise IP-100,2013-04-05 22:41:00,
2013-04-05 17:46:00,69.0,36.0,29.99,North,360,3.0,7.0,30,0.00,,,0.01,Rainwise IP-100,2013-04-05 22:46:00,
2013-04-05 17:51:00,69.0,36.0,29.99,NW,315,4.0,7.0,30,0.00,,,0.01,Rainwise IP-100,2013-04-05 22:51:00,
2013-04-05 17:56:00,68.0,36.0,29.99,NNW,337,3.0,8.0,30,0.00,,,0.01,Rainwise IP-100,2013-04-05 22:56:00,
2013-04-05 18:01:00,67.0,38.0,29.99,North,360,7.0,7.0,35,0.00,,,0.01,Rainwise IP-100,2013-04-05 23:01:00,
2013-04-05 18:06:00,66.0,35.0,30.01,NNW,337,6.0,9.0,32,0.00,,,0.01,Rainwise IP-100,2013-04-05 23:06:00,
2013-04-05 18:11:00,65.0,37.0,30.01,North,360,8.0,10.0,35,0.00,,,0.01,Rainwise IP-100,2013-04-05 23:11:00,
2013-04-05 18:16:00,65.0,38.0,30.01,North,360,6.0,9.0,37,0.00,,,0.01,Rainwise IP-100,2013-04-05 23:16:00,
2013-04-05 18:21:00,65.0,37.0,30.01,North,360,6.0,7.0,36,0.00,,,0.01,Rainwise IP-100,2013-04-05 23:21:00,
2013-04-05 18:27:00,65.0,37.0,30.01,North,360,6.0,9.0,36,0.00,,,0.01,Rainwise IP-100,2013-04-05 23:27:00,
2013-04-05 18:32:00,65.0,37.0,30.01,NNE,22,6.0,10.0,36,0.00,,,0.01,Rainwise IP-100,2013-04-05 23:32:00,
2013-04-05 18:37:00,64.0,37.0,30.01,NNE,22,7.0,9.0,37,0.00,,,0.01,Rainwise IP-100,2013-04-05 23:37:00,
2013-04-05 18:42:00,64.0,38.0,30.01,North,360,7.0,8.0,39,0.00,,,0.01,Rainwise IP-100,2013-04-05 23:42:00,
2013-04-05 18:47:00,64.0,38.0,30.01,NE,45,7.0,9.0,39,0.00,,,0.01,Rainwise IP-100,2013-04-05 23:47:00,
2013-04-05 18:52:00,64.0,37.0,30.01,NNE,22,8.0,13.0,37,0.00,,,0.01,Rainwise IP-100,2013-04-05 23:52:00,
2013-04-05 18:57:00,63.0,37.0,30.01,NNE,22,6.0,9.0,38,0.00,,,0.01,Rainwise IP-100,2013-04-05 23:57:00,
2013-04-05 19:02:00,63.0,36.0,30.01,NNE,22,7.0,9.0,37,0.00,,,0.01,Rainwise IP-100,2013-04-06 00:02:00,
2013-04-05 19:07:00,63.0,36.0,30.02,NNE,22,7.0,9.0,37,0.00,,,0.01,Rainwise IP-100,2013-04-06 00:07:00,
2013-04-05 19:12:00,63.0,36.0,30.02,NNE,22,7.0,9.0,37,0.00,,,0.01,Rainwise IP-100,2013-04-06 00:12:00,
2013-04-05 19:17:00,62.0,36.0,30.02,NNE,22,7.0,9.0,38,0.00,,,0.01,Rainwise IP-100,2013-04-06 00:17:00,
2013-04-05 19:22:00,62.0,36.0,30.02,NNE,22,7.0,10.0,38,0.00,,,0.01,Rainwise IP-100,2013-04-06 00:22:00,
2013-04-05 19:27:00,62.0,36.0,30.03,North,360,7.0,8.0,38,0.00,,,0.01,Rainwise IP-100,2013-04-06 00:27:00,
2013-04-05 19:32:00,61.0,36.0,30.03,North,360,6.0,7.0,38,0.00,,,0.01,Rainwise IP-100,2013-04-06 00:32:00,
2013-04-05 19:37:00,61.0,36.0,30.03,North,360,6.0,7.0,39,0.00,,,0.01,Rainwise IP-100,2013-04-06 00:37:00,
2013-04-05 19:42:00,61.0,36.0,30.03,North,360,6.0,7.0,39,0.00,,,0.01,Rainwise IP-100,2013-04-06 00:42:00,
2013-04-05 19:47:00,61.0,36.0,30.03,North,360,6.0,7.0,39,0.00,,,0.01,Rainwise IP-100,2013-04-06 00:47:00,
2013-04-05 19:52:00,60.0,36.0,30.03,North,360,6.0,7.0,40,0.00,,,0.01,Rainwise IP-100,2013-04-06 00:52:00,
2013-04-05 19:57:00,60.0,36.0,30.04,North,360,6.0,6.0,41,0.00,,,0.01,Rainwise IP-100,2013-04-06 00:57:00,
2013-04-05 20:02:00,60.0,36.0,30.04,North,360,6.0,6.0,41,0.00,,,0.01,Rainwise IP-100,2013-04-06 01:02:00,
2013-04-05 20:07:00,60.0,36.0,30.04,North,360,5.0,6.0,40,0.00,,,0.01,Rainwise IP-100,2013-04-06 01:07:00,
2013-04-05 20:12:00,60.0,36.0,30.04,North,360,6.0,6.0,41,0.00,,,0.01,Rainwise IP-100,2013-04-06 01:12:00,
2013-04-05 20:17:00,59.0,38.0,30.04,North,360,4.0,6.0,45,0.00,,,0.01,Rainwise IP-100,2013-04-06 01:17:00,
2013-04-05 20:22:00,59.0,37.0,30.04,North,360,6.0,6.0,43,0.00,,,0.01,Rainwise IP-100,2013-04-06 01:22:00,
2013-04-05 20:27:00,59.0,37.0,30.05,NNE,22,6.0,7.0,43,0.00,,,0.01,Rainwise IP-100,2013-04-06 01:27:00,
2013-04-05 20:32:00,59.0,36.0,30.05,NNE,22,6.0,8.0,42,0.00,,,0.01,Rainwise IP-100,2013-04-06 01:32:00,
2013-04-05 20:37:00,60.0,36.0,30.04,NNE,22,6.0,7.0,41,0.00,,,0.01,Rainwise IP-100,2013-04-06 01:37:00,
2013-04-05 20:42:00,59.0,36.0,30.04,NNE,22,6.0,7.0,42,0.00,,,0.01,Rainwise IP-100,2013-04-06 01:42:00,
2013-04-05 20:47:00,59.0,37.0,30.05,NE,45,3.0,6.0,43,0.00,,,0.01,Rainwise IP-100,2013-04-06 01:47:00,
2013-04-05 20:52:00,59.0,37.0,30.05,NNE,22,4.0,6.0,43,0.00,,,0.01,Rainwise IP-100,2013-04-06 01:52:00,
2013-04-05 20:57:00,58.0,37.0,30.05,NNE,22,3.0,6.0,44,0.00,,,0.01,Rainwise IP-100,2013-04-06 01:57:00,
2013-04-05 21:02:00,58.0,37.0,30.05,North,360,2.0,5.0,45,0.00,,,0.01,Rainwise IP-100,2013-04-06 02:02:00,
2013-04-05 21:07:00,57.0,36.0,30.06,North,360,4.0,5.0,45,0.00,,,0.01,Rainwise IP-100,2013-04-06 02:07:00,
2013-04-05 21:12:00,57.0,36.0,30.06,North,360,4.0,4.0,45,0.00,,,0.01,Rainwise IP-100,2013-04-06 02:12:00,
2013-04-05 21:17:00,57.0,36.0,30.07,North,360,6.0,6.0,45,0.00,,,0.01,Rainwise IP-100,2013-04-06 02:17:00,
2013-04-05 21:22:00,57.0,37.0,30.07,North,360,5.0,6.0,46,0.00,,,0.01,Rainwise IP-100,2013-04-06 02:22:00,
2013-04-05 21:27:00,57.0,36.0,30.07,North,360,5.0,6.0,45,0.00,,,0.01,Rainwise IP-100,2013-04-06 02:27:00,
2013-04-05 21:32:00,57.0,37.0,30.07,North,360,4.0,6.0,46,0.00,,,0.01,Rainwise IP-100,2013-04-06 02:32:00,
2013-04-05 21:37:00,56.0,36.0,30.07,North,360,3.0,4.0,46,0.00,,,0.01,Rainwise IP-100,2013-04-06 02:37:00,
2013-04-05 21:42:00,56.0,37.0,30.07,North,360,3.0,4.0,49,0.00,,,0.01,Rainwise IP-100,2013-04-06 02:42:00,
2013-04-05 21:47:00,55.0,37.0,30.08,North,360,1.0,3.0,51,0.00,,,0.01,Rainwise IP-100,2013-04-06 02:47:00,
2013-04-05 21:52:00,54.0,41.0,30.08,North,360,2.0,3.0,61,0.00,,,0.01,Rainwise IP-100,2013-04-06 02:52:00,
2013-04-05 21:57:00,54.0,39.0,30.08,North,360,2.0,3.0,56,0.00,,,0.01,Rainwise IP-100,2013-04-06 02:57:00,
2013-04-05 22:02:00,53.0,36.0,30.08,North,360,2.0,2.0,52,0.00,,,0.01,Rainwise IP-100,2013-04-06 03:02:00,
2013-04-05 22:07:00,53.0,35.0,30.09,North,360,3.0,3.0,51,0.00,,,0.01,Rainwise IP-100,2013-04-06 03:07:00,
2013-04-05 22:12:00,53.0,36.0,30.09,North,360,1.0,4.0,52,0.00,,,0.01,Rainwise IP-100,2013-04-06 03:12:00,
2013-04-05 22:17:00,53.0,36.0,30.08,North,360,0.0,2.0,52,0.00,,,0.01,Rainwise IP-100,2013-04-06 03:17:00,
2013-04-05 22:22:00,53.0,36.0,30.08,North,360,0.0,0.0,53,0.00,,,0.01,Rainwise IP-100,2013-04-06 03:22:00,
2013-04-05 22:27:00,52.0,39.0,30.08,North,360,0.0,2.0,62,0.00,,,0.01,Rainwise IP-100,2013-04-06 03:27:00,
2013-04-05 22:32:00,52.0,39.0,30.08,North,360,0.0,0.0,62,0.00,,,0.01,Rainwise IP-100,2013-04-06 03:32:00,
2013-04-05 22:37:00,52.0,37.0,30.09,North,360,0.0,0.0,57,0.00,,,0.01,Rainwise IP-100,2013-04-06 03:37:00,
2013-04-05 22:42:00,52.0,37.0,30.09,North,360,0.0,0.0,56,0.00,,,0.01,Rainwise IP-100,2013-04-06 03:42:00,
2013-04-05 22:47:00,52.0,40.0,30.08,North,360,2.0,2.0,63,0.00,,,0.01,Rainwise IP-100,2013-04-06 03:47:00,
2013-04-05 22:52:00,51.0,40.0,30.08,North,360,0.0,3.0,66,0.00,,,0.01,Rainwise IP-100,2013-04-06 03:52:00,
2013-04-05 22:57:00,51.0,40.0,30.09,North,360,1.0,0.0,66,0.00,,,0.01,Rainwise IP-100,2013-04-06 03:57:00,
2013-04-05 23:00:00,51.0,41.0,30.09,North,360,1.0,3.0,68,0.00,,,0.01,Rainwise IP-100,2013-04-06 04:00:00,
2013-04-05 23:04:00,51.0,40.0,30.08,North,360,1.0,3.0,67,0.00,,,0.01,Rainwise IP-100,2013-04-06 04:04:00,
2013-04-05 23:09:00,50.0,40.0,30.08,North,360,0.0,2.0,69,0.00,,,0.01,Rainwise IP-100,2013-04-06 04:09:00,
2013-04-05 23:11:00,50.0,41.0,30.08,North,360,0.0,2.0,73,0.00,,,0.01,Rainwise IP-100,2013-04-06 04:11:00,
2013-04-05 23:16:00,49.0,41.0,30.08,North,360,2.0,3.0,74,0.00,,,0.01,Rainwise IP-100,2013-04-06 04:16:00,
2013-04-05 23:21:00,49.0,42.0,30.08,North,360,2.0,4.0,77,0.00,,,0.01,Rainwise IP-100,2013-04-06 04:21:00,
2013-04-05 23:26:00,49.0,41.0,30.09,North,360,0.0,2.0,74,0.00,,,0.01,Rainwise IP-100,2013-04-06 04:26:00,
2013-04-05 23:31:00,49.0,42.0,30.09,North,360,0.0,0.0,76,0.00,,,0.01,Rainwise IP-100,2013-04-06 04:31:00,
2013-04-05 23:36:00,48.0,42.0,30.09,North,360,0.0,0.0,78,0.00,,,0.01,Rainwise IP-100,2013-04-06 04:36:00,
2013-04-05 23:42:00,48.0,41.0,30.09,North,360,0.0,0.0,76,0.00,,,0.01,Rainwise IP-100,2013-04-06 04:42:00,
2013-04-05 23:47:00,48.0,41.0,30.09,North,360,0.0,0.0,77,0.00,,,0.01,Rainwise IP-100,2013-04-06 04:47:00,
2013-04-05 23:52:00,48.0,40.0,30.09,North,360,0.0,0.0,73,0.00,,,0.01,Rainwise IP-100,2013-04-06 04:52:00,
2013-04-05 23:57:00,49.0,38.0,30.09,North,360,0.0,0.0,66,0.00,,,0.01,Rainwise IP-100,2013-04-06 04:57:00,